Location: Freistadt
(48.5112°N, 14.5013°E)
Time: 01:14:03
(UTC+02:00)

O/OREOS (USA 219) - Pass Details

Date: 01 April 2023
Orbit: 621 x 646 km, 72.0° (Epoch: 22 May)

Event Time Altitude Azimuth Distance (km) Brightness Sun altitude
Exits shadow 04:12:41 - 151° (SSE) 2,955 ? -23.3°
Rises 04:12:44 0° 150° (SSE) 2,940 ? -23.3°
Reaches altitude 10° 04:16:20 10° 121° (ESE) 2,033 ? -22.8°
Maximum altitude 04:18:08 12° 97° (E) 1,886 ? -22.6°
Drops below altitude 10° 04:19:57 10° 74° (ENE) 2,034 ? -22.4°
Sets 04:23:32 0° 45° (NE) 2,944 ? -21.9°
